Regional Weather Roundup
Issued by NWS Portland, ME

Current Version | Previous Version | Text Only | Print | Product List | Glossary Off
Versions: 1 2 3 4 5 6 7 8 9 10 11 12 13 14 15 16 17 18 19 20 21 22 23 24 25 26 27 28 29 30 31 32 33 34 35 36 37 38 39 40 41 42 43 44 45 46 47 48 49 50
000 ASUS41 KGYX 240110 RWRGYX WEATHER ROUNDUP FOR MAINE AND NEW HAMPSHIRE NATIONAL WEATHER SERVICE GRAY ME 900 PM EDT MON APR 23 2018 MEZ002-005-006-010-012-015-018-020-021-024-026-027-029-240200- MAINE CITY SKY/WX TMP DP RH WIND PRES REMARKS PORTLAND FAIR 48 22 35 S12 30.41R SANFORD FAIR 47 21 35 S7 30.42R BAR HARBOR FAIR 42 31 64 S7 30.40R WISCASSET FAIR 45 28 51 CALM 30.42R ROCKLAND FAIR 45 27 49 W7 30.41R FRYEBURG FAIR 53 21 28 S9G17 30.37R LEWISTONAUBURN FAIR 48 19 31 S8 30.39R AUGUSTA FAIR 47 19 33 S7 30.38R WATERVILLE FAIR 49 22 34 S3 30.35R BANGOR FAIR 48 26 42 S8 30.36R GREENVILLE N/A 49 10 20 CALM 30.30R MILLINOCKET FAIR 41 19 41 CALM 30.32R HOULTON FAIR 35 27 72 CALM 30.29 PRESQUE ISLE FAIR 40 19 43 CALM 30.28R FRENCHVILLE FAIR 51 8 17 SW6 30.25R CARIBOU FAIR 49 13 23 SW5 30.26R $$ NHZ002-005-008-009-011-012-014-240200- NEW HAMPSHIRE CITY SKY/WX TMP DP RH WIND PRES REMARKS ROCHESTER FAIR 48 21 34 S5 30.40R NASHUA FAIR 55 23 28 S8 30.41R MANCHESTER FAIR 56 17 21 S9 30.39R CONCORD FAIR 55 20 25 S13 30.39R LACONIA FAIR 56 22 26 SW7 30.37R PLYMOUTH FAIR 43 32 64 CALM 30.35R BERLIN FAIR 35 24 64 CALM 30.33R WHITEFIELD FAIR 37 27 67 CALM 30.34R JAFFREY FAIR 44 30 57 S3 30.38 KEENE FAIR 49 25 39 S3 30.37R LEBANON FAIR 49 26 41 CALM 30.34R MT WASHINGTON PTCLDY 30 14 51 SW28 N/A WCI 16 $$ VTZ005-007-008-240200- VERMONT CITY SKY/WX TMP DP RH WIND PRES REMARKS ST JOHNSBURY N/A 49 25 39 MISG 30.31S MONTPELIER FAIR 49 16 26 SW6 30.37R BURLINGTON FAIR 56 15 20 S7 30.30R $$ MAZ007-012-024-CTZ003-RIZ002-NYZ038-NYZ072-240200- SOUTHERN NEW ENGLAND AND NY CITY SKY/WX TMP DP RH WIND PRES REMARKS BOSTON FAIR 51 25 36 S13 30.45R WORCESTER FAIR 51 20 29 S9 30.42R NANTUCKET FAIR 40 40 100 S6 30.49R PROVIDENCE FAIR 47 29 49 S7 30.47R HARTFORD FAIR 54 21 27 S12 30.42R ALBANY FAIR 62 12 14 S8 30.34R NEW YORK CITY MOCLDY 53 35 50 S6 30.44R $$ ANZ081-ANZ082-ANZ150-NHZ014-MEZ023>029-240200- COASTAL MARINE OBSERVATIONS STATION/POSITION TIME TEMP WIND PRES WAVE AIR SEA DIR/SP/G HT/PER (UTC) (F) (DEG/KT/KT) (MB) (FT/S) MOUNT DESERT ROC 0100 44 210/ 16/ 18 1029.6R MATINICUS ROCK 0000 43 210/ 15/ 16 1029.1 ISLE OF SHOALS 0000 47 170/ 18/ 19 1029.4 JEFFREYS LEDGE 0036 42 N/A 2/ 3 CASHES LEDGE BUO 0050 43 43 1030.4R 1/ 3 $$ .............KEY.............. WCI - WIND CHILL TC - TEMPERATURE IN CELSIUS VSB - VISIBILITY IN MILES HX - HEAT INDEX FAIR- INDICATES FEW OR NO CLOUDS BELOW 12,000 FT, WITH NO SIGNIFICANT WEATHER AND/OR OBSTRUCTIONS TO VISIBILITY.

USA.gov is the U.S. government's official web portal to all federal, state and local government web resources and services.